Temperature
17 17 17 17 17 17 17 17 16 16 16 16 16 16 16 16 16 16 16 16 16 16 16 16 16 16 16 16 16 16 16 16 16 16 15 15 15 15 15 15 15 14 14
17 17 17 17 17 16 16 16 16 16 16 16 16 16 16 16 16 16 16 16 16 16 16 16 16 16 16 16 16 16 16 15 15 15 15 15 15 15 15 15 15 15 14
17 17 17 17 17 16 16 16 16 16 16 16 16 16 16 16 16 16 16 16 16 16 16 16 15 16 16 16 16 16 15 15 15 15 15 15 15 15 14 14 14 14 15
17 17 17 16 16 16 16 16 16 16 16 16 16 16 16 16 16 15 15 15 15 15 16 15 15 15 15 16 16 15 15 15 14 14 14 14 15 14 14 14 14 15 14
16 16 16 16 16 16 16 16 16 16 16 16 16 16 16 15 16 15 15 15 15 15 15 15 15 15 15 15 15 15 15 14 14 14 14 14 14 14 14 14 14 14 14
16 16 16 16 16 16 16 16 16 16 16 16 16 15 15 15 15 15 15 15 15 15 15 15 15 15 15 15 15 15 14 14 14 14 14 14 14 14 14 14 14 14 14
15 16 16 16 16 16 16 16 16 16 16 16 15 15 15 15 15 15 15 15 15 15 15 15 15 15 15 15 15 15 14 14 14 13 14 14 14 14 14 14 14 14 14
15 15 15 15 15 15 15 15 15 15 15 15 15 15 15 15 15 15 15 15 15 15 15 15 15 15 15 15 15 15 14 14 14 13 14 14 14 14 14 14 14 14 14
15 15 15 15 15 15 15 15 15 15 15 15 15 15 15 15 15 15 15 15 15 15 15 15 15 15 15 15 15 14 14 14 13 13 14 14 14 14 14 14 14 14 14
15 14 15 15 15 15 15 15 15 15 15 15 15 15 15 15 15 15 15 14 14 14 15 15 15 15 14 14 14 14 14 14 13 14 14 14 14 14 14 14 14 14 14
14 14 14 14 14 14 14 14 14 15 15 15 15 15 15 15 14 14 14 14 14 14 14 14 14 14 14 14 14 14 14 13 13 13 14 14 14 14 14 14 14 14 14
14 14 14 14 14 14 14 14 14 14 15 15 15 15 14 14 14 14 14 14 14 14 14 14 14 14 14 14 14 13 13 13 13 13 13 14 14 14 14 14 14 14 13
14 13 14 14 13 14 14 14 14 14 14 14 14 14 14 14 14 14 14 14 14 14 14 14 13 14 13 14 13 13 13 13 13 13 13 13 13 13 13 13 13 13 13
13 13 13 13 13 13 13 13 13 14 14 14 14 14 14 14 14 14 14 14 14 13 13 13 13 13 13 13 13 13 13 13 13 13 13 13 13 13 13 13 13 13 13
13 13 13 13 13 13 13 13 13 13 13 13 13 13 13 13 13 13 13 13 13 13 13 13 13 13 13 13 13 13 13 13 13 13 13 13 13 13 13 13 13 13 13
12 13 13 13 13 13 13 13 13 13 13 13 13 13 13 13 13 13 13 13 13 13 13 13 13 13 13 12 12 12 12 12 12 12 12 13 13 13 13 13 13 13 13
12 12 12 12 13 13 13 13 13 13 13 13 13 13 13 13 13 13 13 13 13 13 13 12 12 12 12 12 12 12 12 12 12 12 12 12 12 12 12 12 12 12 12
12 12 12 12 12 12 12 12 12 12 12 12 12 12 12 12 13 12 12 12 12 12 12 12 12 12 12 12 12 12 12 12 12 12 12 12 12 12 12 12 12 12 12
12 12 12 12 12 12 12 12 12 12 12 12 12 12 12 12 12 12 12 12 12 12 12 12 12 12 12 12 11 12 12 12 12 12 12 12 12 12 12 12 12 12 12
11 11 12 12 11 11 11 11 11 11 11 11 12 12 12 12 12 12 12 12 12 12 12 12 12 11 11 11 11 11 11 11 11 11 11 11 12 12 12 12 12 12 12
11 11 11 11 11 11 11 11 11 11 11 11 11 11 11 11 11 11 11 11 11 11 11 11 11 11 11 11 11 11 11 11 11 11 11 11 11 11 11 11 11 12 11
11 11 11 11 11 11 11 11 11 11 11 11 11 11 11 11 11 11 11 11 11 11 11 11 11 11 11 11 11 10 10 10 10 11 11 11 11 11 11 11 11 11 11
10 10 10 10 10 10 10 10 10 10 10 10 11 11 11 11 11 11 11 11 11 11 11 11 11 11 11 10 10 11 10 10 10 10 10 10 11 11 11 11 11 11 11
10 10 10 10 10 10 10 10 10 10 10 10 10 11 11 10 10 10 10 10 10 10 10 10 10 10 10 10 10 10 11 10 10 9 10 10 10 10 10 10 10 10 10
9 9 9 9 9 10 10 10 10 10 10 10 10 10 10 10 10 10 10 10 10 10 10 10 10 10 10 10 10 10 10 10 10 10 9 9 10 10 10 10 10 10 10
9 9 9 9 9 9 9 10 9 9 9 9 10 10 9 9 10 10 10 10 10 10 10 10 10 10 9 9 9 9 10 10 10 10 10 9 9 9 9 9 9 9 9
Wind_Speed
10 13 15 14 13 13 13 12 13 13 12 12 12 12 12 12 12 12 12 12 12 12 13 14 14 15 14 15 16 16 16 16 16 16 16 16 15 15 15 15 16 16 18
13 16 16 14 14 13 13 12 12 12 12 12 12 12 12 11 11 11 11 12 12 12 12 13 14 14 14 14 14 14 14 14 13 14 15 15 15 15 16 17 16 15 17
14 16 15 14 14 14 13 12 12 12 11 11 11 11 11 11 11 11 11 11 11 11 12 12 13 13 14 13 13 13 11 10 8 9 12 12 13 15 15 15 16 16 16
13 15 14 14 15 14 13 12 12 11 11 11 11 11 11 11 11 10 11 11 11 11 11 12 12 13 13 13 12 11 9 7 5 6 9 12 12 14 14 14 15 15 15
12 14 15 15 14 14 13 12 12 11 11 10 10 10 10 10 10 10 11 11 11 11 12 12 12 12 12 11 10 9 6 4 5 7 12 14 13 13 14 14 14 14 14
11 14 15 15 14 14 13 12 11 11 10 10 10 10 10 10 10 11 11 11 11 11 12 12 12 12 11 10 9 7 4 3 4 8 13 13 12 12 13 13 13 13 14
10 13 15 15 14 14 13 12 11 11 10 9 9 9 9 10 10 11 11 11 11 10 10 11 11 11 10 10 8 5 3 4 5 10 13 13 12 12 12 12 12 13 13
10 12 14 14 14 13 13 12 11 10 10 9 9 9 9 10 10 11 11 11 10 10 10 10 10 10 10 9 6 4 3 4 5 10 12 12 11 11 12 11 11 12 12
9 10 11 12 12 13 12 12 11 11 10 9 9 9 9 10 10 10 11 11 10 10 10 10 10 10 9 8 5 3 2 3 5 9 10 11 11 11 11 11 11 11 11
8 8 8 9 10 10 10 11 11 11 10 9 9 9 9 9 10 10 10 11 10 10 10 10 10 10 9 7 5 2 1 2 5 9 10 10 11 10 10 10 10 11 11
6 6 6 7 8 10 9 10 11 11 10 9 8 9 9 9 10 10 10 11 11 10 10 10 10 10 9 7 5 3 1 1 6 9 10 10 10 10 10 10 10 10 9
6 5 5 5 6 8 8 9 9 9 9 8 8 8 8 8 8 9 11 11 11 11 10 11 11 10 9 7 5 3 1 3 5 9 10 11 10 9 9 9 9 9 8
6 5 5 5 5 5 5 6 6 7 7 7 8 8 7 7 8 9 9 10 10 11 10 10 10 9 7 7 6 4 2 3 6 9 10 11 10 9 8 8 7 7 7
6 5 5 4 4 4 5 5 5 5 5 5 6 7 6 5 5 6 6 8 8 8 8 8 6 7 6 6 6 5 3 4 6 9 10 11 10 8 7 7 7 6 6
6 6 5 5 5 4 4 3 4 4 5 6 7 6 6 5 3 4 5 6 7 7 7 6 5 5 4 4 4 4 4 5 7 8 9 10 9 8 7 6 6 6 5
6 6 5 5 5 4 4 3 3 4 5 6 6 6 6 5 5 4 4 4 5 6 6 6 5 5 4 3 3 3 4 5 6 8 9 9 8 7 6 5 5 5 5
6 7 6 6 5 5 4 4 4 5 5 5 5 6 5 6 5 4 3 3 4 6 6 5 5 4 4 3 2 3 4 4 5 7 9 9 8 7 6 6 5 5 5
6 7 6 6 6 5 4 4 4 5 5 5 5 5 5 6 5 4 3 3 4 5 4 3 3 3 3 3 3 2 3 4 4 5 7 8 8 7 6 6 5 5 4
7 7 7 6 6 6 5 4 4 4 4 5 5 5 4 5 6 5 3 4 5 4 3 3 3 3 3 3 3 3 2 2 2 4 5 6 7 7 7 6 5 5 3
7 7 7 6 6 6 5 4 3 3 3 4 5 5 5 4 5 5 4 4 5 3 3 3 3 3 3 4 4 3 2 2 2 3 3 4 5 6 6 6 6 4 4
6 6 7 7 6 6 5 4 4 3 3 3 3 5 5 5 5 5 3 3 4 3 4 4 4 4 3 3 3 2 1 1 1 1 2 3 4 5 6 6 6 5 5
7 7 7 7 7 6 5 5 4 4 3 3 3 4 5 5 5 4 4 3 3 3 4 4 4 3 2 3 3 3 2 0 0 1 1 2 2 3 4 5 5 6 6
7 7 7 7 7 7 7 5 5 4 3 3 3 3 3 5 5 4 4 4 3 4 4 4 4 4 4 2 2 2 3 3 2 0 1 1 2 2 2 3 4 5 5
6 6 6 7 7 7 7 7 7 6 5 4 4 3 3 5 5 5 4 4 3 3 4 4 3 3 4 4 2 1 1 2 3 2 0 1 1 2 2 2 3 3 4
4 5 5 6 6 6 7 7 7 5 4 3 4 5 4 3 4 5 5 4 4 3 3 3 3 3 3 3 2 1 1 0 1 2 2 2 1 1 1 2 3 4 3
4 4 4 5 5 6 7 7 6 6 5 6 5 5 4 3 3 4 4 4 4 3 4 3 3 4 3 3 2 2 2 2 2 2 2 2 2 1 1 1 2 3 4
Wind_Direction
121 129 136 132 129 128 126 125 125 125 124 123 124 122 119 115 112 111 110 108 106 105 104 100 97 94 90 87 85 84 83 82 82 81 78 76 75 73 73 73 74 72 73
126 130 135 133 130 128 127 125 123 124 124 125 125 125 123 122 119 117 114 113 109 104 104 103 101 97 93 91 90 89 89 89 89 88 83 76 73 73 73 73 75 75 74
125 130 133 131 130 126 123 122 124 126 126 127 128 128 126 124 124 122 119 116 112 107 104 104 102 100 97 95 94 93 92 92 92 93 92 86 79 76 77 78 78 77 76
121 128 132 129 129 126 122 121 123 128 129 129 129 129 129 128 126 124 120 117 115 112 109 106 105 104 102 100 99 97 93 84 76 79 86 86 83 82 79 81 81 79 78
119 127 129 130 128 127 124 123 124 126 130 131 131 130 133 132 130 127 122 119 116 114 113 111 109 107 105 105 104 101 90 65 62 71 84 84 81 84 80 80 81 80 78
122 123 129 130 128 128 126 124 125 127 130 133 133 134 135 135 134 130 125 123 119 118 117 114 113 110 108 108 107 101 77 34 53 78 86 86 84 85 84 82 81 81 79
124 123 132 129 129 130 129 128 128 128 129 135 138 136 136 138 136 133 129 128 127 126 123 120 119 116 113 112 109 100 63 23 69 82 84 85 88 87 87 86 84 84 82
126 126 132 130 130 131 133 132 131 131 132 132 137 141 139 136 138 140 137 134 134 134 132 128 124 122 119 117 114 104 55 31 72 88 88 89 94 90 87 87 87 86 84
121 125 130 134 132 132 135 135 136 135 134 132 130 133 137 139 141 144 143 142 139 137 137 135 131 127 124 124 124 112 49 27 63 86 92 94 99 95 92 88 86 87 86
116 126 134 139 137 134 133 137 137 137 136 135 136 135 137 142 147 149 150 149 147 143 142 140 137 135 133 135 140 140 39 24 80 89 94 100 102 101 96 92 88 88 88
122 129 137 141 140 139 141 143 140 139 140 141 144 151 155 161 159 154 152 154 153 151 148 148 147 145 142 146 157 175 209 84 89 92 96 108 107 102 98 95 92 92 90
143 142 139 141 139 140 146 144 148 148 150 155 157 165 178 170 159 153 155 158 159 156 156 157 158 157 155 156 164 179 196 116 105 100 104 113 112 106 103 99 95 95 93
151 147 142 138 134 138 137 147 153 154 159 162 163 170 168 153 148 146 150 156 161 165 163 164 168 170 162 155 160 167 153 114 105 106 112 117 116 110 107 103 100 98 98
153 148 140 141 137 138 141 147 147 150 155 152 160 164 151 138 139 145 150 159 165 167 163 166 172 169 161 163 158 151 150 117 105 111 120 121 120 118 113 110 110 108 103
156 153 152 149 145 139 137 147 146 150 154 147 147 154 149 138 142 146 150 158 161 158 158 163 164 159 158 157 147 146 138 127 115 110 122 127 124 123 122 116 116 116 113
162 156 157 155 150 140 145 150 139 141 139 134 137 145 147 142 142 147 146 149 151 159 163 163 161 152 146 136 133 128 124 120 121 118 124 129 129 130 131 129 124 119 116
162 156 157 156 147 147 149 146 130 130 126 123 133 144 143 138 138 143 143 144 150 159 155 149 142 136 134 136 135 115 108 110 118 122 128 131 130 129 132 132 126 121 119
157 157 157 161 153 151 143 132 122 128 128 125 130 139 145 145 148 139 134 143 141 143 138 138 143 135 140 138 131 115 94 95 98 112 121 126 132 134 134 135 135 129 127
158 158 159 156 154 152 145 127 120 121 121 126 128 132 143 150 152 145 140 140 140 134 138 150 143 144 141 136 127 114 105 100 104 104 108 118 125 129 131 135 139 140 129
156 158 159 157 156 153 144 135 124 121 119 116 121 127 135 146 153 145 143 148 145 137 137 141 145 136 139 138 122 108 111 111 98 109 120 121 130 134 131 134 135 135 137
157 161 161 160 159 154 150 152 150 153 142 126 109 126 140 150 154 144 139 146 146 148 151 146 141 142 143 127 112 103 64 83 101 117 124 123 129 143 143 140 139 139 141
164 167 162 162 162 159 156 155 155 153 147 143 120 126 145 150 152 151 144 149 147 148 150 153 143 146 160 151 141 139 149 8 333 171 129 140 131 124 125 138 142 140 140
163 169 172 168 163 162 154 146 143 131 128 136 151 152 147 151 149 148 150 146 148 150 159 167 164 161 172 191 173 155 158 188 177 167 170 153 139 113 115 128 134 141 141
168 166 167 166 163 162 157 156 157 157 163 175 169 161 154 154 154 154 155 150 148 150 156 172 168 167 169 184 210 248 187 144 151 159 226 190 166 154 150 136 136 134 137
146 153 161 160 161 161 160 158 160 165 171 156 154 155 163 153 151 157 162 154 154 154 159 166 164 160 169 175 181 192 196 44 115 156 180 192 185 194 165 155 137 132 141
117 130 147 160 163 165 165 163 167 172 168 157 162 166 165 158 159 158 164 157 158 159 162 163 167 166 174 173 171 172 163 166 183 161 176 178 185 213 172 117 121 129 138
Height
1505 1507 1510 1512 1515 1517 1519 1521 1524 1526 1528 1529 1531 1532 1534 1535 1537 1538 1539 1540 1541 1543 1544 1545 1546 1547 1547 1548 1549 1550 1550 1551 1552 1552 1553 1553 1553 1554 1554 1554 1554 1555 1555
1503 1506 1509 1512 1515 1517 1520 1522 1524 1526 1528 1530 1532 1533 1535 1536 1538 1539 1540 1542 1543 1544 1545 1546 1547 1548 1549 1550 1551 1552 1553 1553 1554 1555 1555 1555 1556 1556 1556 1557 1557 1557 1557
1503 1506 1509 1512 1515 1517 1520 1522 1524 1527 1529 1531 1532 1534 1536 1537 1539 1540 1541 1543 1544 1545 1546 1547 1549 1550 1550 1551 1552 1553 1555 1556 1556 1557 1557 1558 1558 1558 1559 1559 1559 1559 1559
1503 1506 1509 1512 1515 1518 1520 1523 1525 1527 1529 1531 1533 1535 1536 1538 1539 1541 1542 1544 1545 1546 1547 1549 1550 1551 1552 1553 1554 1555 1556 1557 1558 1559 1559 1560 1560 1560 1561 1561 1561 1561 1561
1503 1506 1509 1512 1515 1517 1520 1523 1525 1527 1529 1531 1533 1535 1537 1538 1540 1542 1543 1545 1546 1547 1548 1550 1551 1552 1553 1554 1555 1557 1558 1559 1560 1560 1561 1562 1562 1562 1562 1563 1563 1563 1563
1504 1506 1509 1512 1515 1517 1520 1523 1525 1527 1529 1531 1533 1535 1537 1539 1540 1542 1544 1545 1546 1548 1549 1550 1552 1553 1554 1555 1557 1558 1559 1561 1561 1562 1562 1563 1563 1564 1564 1564 1565 1565 1565
1504 1506 1509 1512 1514 1517 1520 1522 1525 1527 1529 1531 1533 1535 1537 1539 1541 1542 1544 1546 1547 1548 1550 1551 1552 1554 1555 1557 1558 1559 1560 1561 1562 1563 1564 1564 1565 1565 1565 1566 1566 1566 1566
1503 1506 1508 1511 1514 1517 1519 1522 1524 1526 1529 1531 1533 1535 1537 1539 1541 1542 1544 1546 1548 1549 1550 1552 1553 1555 1556 1558 1559 1560 1561 1562 1563 1564 1565 1565 1566 1566 1567 1567 1567 1568 1568
1503 1505 1508 1510 1513 1516 1518 1521 1523 1526 1528 1530 1532 1535 1537 1539 1541 1542 1544 1546 1548 1550 1551 1552 1554 1555 1557 1558 1560 1561 1562 1563 1564 1565 1565 1566 1567 1567 1568 1568 1568 1569 1569
1503 1505 1507 1510 1512 1515 1517 1520 1522 1525 1527 1529 1532 1534 1536 1538 1540 1542 1544 1546 1548 1550 1551 1553 1554 1556 1557 1559 1560 1562 1563 1564 1565 1565 1566 1567 1567 1568 1568 1569 1569 1569 1570
1502 1504 1506 1508 1511 1513 1516 1519 1521 1523 1526 1528 1530 1533 1535 1537 1539 1541 1543 1546 1548 1549 1551 1553 1554 1556 1558 1559 1561 1562 1563 1564 1565 1566 1567 1567 1568 1569 1569 1570 1570 1570 1570
1500 1503 1505 1507 1510 1512 1515 1517 1519 1522 1524 1527 1529 1531 1534 1536 1538 1541 1543 1545 1547 1549 1551 1552 1554 1556 1558 1559 1561 1562 1563 1565 1566 1566 1567 1568 1569 1569 1570 1570 1570 1571 1571
1498 1501 1503 1506 1508 1511 1513 1516 1518 1520 1522 1525 1528 1530 1533 1535 1537 1539 1542 1544 1546 1548 1550 1552 1554 1555 1557 1559 1561 1562 1564 1565 1566 1566 1567 1568 1569 1569 1570 1570 1571 1571 1571
1496 1499 1501 1504 1507 1509 1512 1514 1516 1519 1521 1523 1526 1529 1531 1533 1536 1538 1540 1542 1545 1547 1549 1551 1553 1555 1557 1558 1560 1562 1563 1565 1566 1566 1567 1568 1569 1569 1570 1571 1571 1571 1572
1494 1497 1499 1502 1505 1507 1510 1512 1515 1517 1520 1522 1524 1527 1529 1532 1534 1537 1539 1541 1543 1546 1548 1550 1552 1554 1555 1557 1559 1561 1563 1564 1565 1566 1567 1568 1568 1569 1570 1571 1571 1571 1572
1492 1494 1497 1500 1503 1505 1508 1511 1513 1515 1518 1520 1523 1525 1528 1530 1533 1535 1537 1540 1542 1544 1546 1548 1550 1552 1554 1556 1558 1560 1562 1563 1565 1566 1566 1567 1568 1569 1569 1570 1571 1571 1571
1490 1492 1495 1498 1501 1503 1506 1509 1511 1514 1516 1518 1521 1523 1526 1528 1531 1533 1536 1538 1540 1543 1545 1547 1549 1551 1553 1555 1557 1559 1561 1562 1564 1565 1566 1566 1567 1568 1569 1569 1570 1570 1571
1487 1490 1493 1495 1498 1501 1504 1507 1509 1512 1514 1516 1519 1521 1524 1526 1529 1531 1534 1536 1538 1541 1543 1545 1547 1549 1551 1554 1556 1558 1559 1561 1562 1564 1564 1565 1566 1567 1567 1568 1569 1569 1570
1484 1487 1490 1493 1495 1498 1502 1505 1507 1509 1512 1514 1517 1519 1522 1524 1527 1529 1532 1534 1536 1539 1541 1543 1546 1548 1550 1552 1554 1556 1558 1559 1561 1562 1563 1564 1565 1565 1566 1567 1568 1568 1569
1482 1484 1487 1490 1493 1496 1499 1502 1505 1507 1510 1512 1515 1517 1520 1522 1524 1527 1529 1532 1534 1536 1539 1541 1543 1546 1548 1550 1552 1554 1555 1557 1559 1560 1561 1562 1563 1564 1564 1565 1566 1567 1567
1479 1481 1484 1487 1490 1493 1496 1498 1501 1504 1507 1510 1512 1514 1517 1519 1522 1524 1527 1529 1531 1534 1536 1539 1541 1543 1546 1548 1550 1552 1553 1555 1556 1558 1559 1560 1561 1562 1563 1563 1564 1565 1565
1475 1478 1481 1484 1487 1490 1493 1496 1499 1502 1505 1507 1510 1512 1514 1517 1519 1521 1524 1526 1529 1531 1533 1536 1538 1541 1543 1545 1547 1549 1551 1554 1554 1555 1556 1557 1558 1559 1560 1561 1562 1562 1563
1472 1475 1478 1481 1484 1487 1490 1494 1497 1499 1502 1504 1506 1509 1511 1514 1516 1519 1521 1524 1526 1528 1530 1533 1535 1538 1540 1543 1545 1547 1548 1549 1551 1553 1553 1555 1556 1556 1557 1559 1559 1560 1561
1469 1472 1475 1478 1481 1484 1487 1490 1493 1495 1497 1500 1503 1506 1509 1511 1513 1516 1518 1520 1523 1525 1527 1530 1532 1535 1537 1539 1542 1544 1546 1546 1548 1549 1551 1552 1553 1554 1555 1556 1557 1558 1558
1466 1469 1472 1475 1478 1481 1484 1487 1490 1492 1495 1498 1501 1503 1506 1508 1510 1512 1515 1517 1519 1522 1524 1527 1529 1531 1534 1536 1538 1540 1542 1544 1545 1546 1547 1549 1550 1551 1552 1553 1554 1555 1556
1464 1466 1469 1472 1475 1478 1481 1483 1486 1489 1492 1495 1497 1500 1502 1504 1507 1509 1511 1513 1516 1518 1521 1523 1526 1528 1530 1532 1534 1536 1538 1540 1541 1542 1543 1545 1546 1548 1549 1550 1551 1552 1552